[[{"header":{"parameterUnit":"m.s-1","parameterCategory":1,"la1":30.2991,"la2":30.254,"lo1":-89.0895,"lo2":-89.0444,"dy":0.0017,"dx":0.0017,"nx":28,"ny":28,"refTime":"2023-09-09T21:00:00:Z","depth":0,"parameterNumber":2,"parameterNumberName":"U-component_of_WINDS"},"data":[0,0,0,0,0,0,0,0,0,0,0,0,0,0,0,0,0,0,0,0,0,0,0,0,0,0,0,0,0,0,0,0,0,0,0,0,0,0,0,0,0,0,0,0,0,0,0,0,0,0,0,0,0,0,0,0,0,0,0.3564,0.3565,0,0.363,0.363,0.3631,0.3676,0.3676,0.3676,0.3677,0.3747,0.3748,0.375,0,0,0,0,0,0,0,0,0,0,0,0,0,0.3479,0.348,0.3564,0.3565,0.3565,0.363,0.3631,0.3631,0.3676,0.3676,0.3677,0.3677,0.3746,0.3748,0.375,0,0,0,0,0,0,0,0,0,0,0,0,0,0.3527,0.348,0.3564,0.3595,0.3599,0.3629,0.3631,0.3632,0.3676,0.3676,0.3677,0.3677,0.3746,0.3748,0.375,0.3756,0,0,0.3758,0.3759,0,0,0,0,0,0,0,0,0.3524,0.353,0.359,0.3593,0.3597,0.3645,0.3626,0.3673,0.3676,0.3647,0.3677,0.3677,0.3713,0.3718,0.3729,0.3759,0.3762,0.3758,0.3759,0.376,0.3761,0,0,0,0,0,0,0,0.3521,0.3528,0.359,0.3591,0.3595,0.3607,0.3614,0.3635,0.3676,0.3649,0.3653,0.366,0.3715,0.3727,0.3731,0.3763,0.3758,0.376,0.3761,0.3762,0.3799,0.3799,0,0,0,0,0,0,0.3512,0.3525,0.3588,0.3592,0.3561,0.3608,0.3616,0.3629,0.3676,0.3684,0.3659,0.3661,0.3723,0.3728,0.3734,0.3742,0.376,0.3762,0.3764,0.3799,0.3799,0.3798,0,0,0,0,0,0,0.351,0.3517,0.3585,0.3559,0.3569,0.3609,0.3623,0.363,0.3642,0.3684,0.3691,0.3664,0.3723,0.3731,0.3749,0.3745,0.3763,0.3766,0.38,0.3799,0.3799,0.3759,0,0,0,0,0,0,0.3508,0.3516,0.3518,0.3559,0.357,0.3599,0.3623,0.3631,0.3646,0.365,0.369,0.3697,0.3724,0.3746,0.3752,0.3749,0.3767,0.3801,0.38,0.3799,0.3761,0.3757,0.3754,0,0,0,0,0,0.3504,0.3506,0.3518,0.3526,0.3573,0.3599,0.3605,0.3635,0.3645,0.3648,0.3674,0.3696,0.3745,0.3747,0.3754,0.3752,0.3801,0.38,0.3799,0.3763,0.3758,0.3754,0,0,0,0,0,0,0.3465,0.3511,0.3526,0.354,0.3565,0.3606,0.361,0.363,0.3653,0.3655,0.3693,0.3701,0.3716,0.3736,0.3738,0.3759,0.3775,0.3776,0.3745,0.3741,0.3738,0.3732,0.3769,0,0,0,0,0,0.3457,0.3474,0.3514,0.3522,0.3534,0.357,0.3582,0.3603,0.3631,0.3641,0.367,0.3696,0.3717,0.3731,0.3753,0.3764,0.3773,0.3766,0.3763,0.376,0.3759,0.3766,0.3763,0.3795,0.3795,0.3795,0,0,0.3443,0.347,0.3479,0.3515,0.3537,0.3553,0.3578,0.3595,0.3607,0.3644,0.3663,0.3685,0.3717,0.3731,0.374,0.3749,0.3753,0.3758,0.3756,0.3757,0.3765,0.3762,0.3759,0.3795,0.3795,0.3795,0,0,0.3425,0.3447,0.3456,0.3477,0.3509,0.3532,0.3534,0.3573,0.3588,0.3607,0.3635,0.3651,0.3687,0.3708,0.3724,0.3712,0.3732,0.3718,0.37,0.3706,0.3703,0.3701,0.3696,0.3694,0.3718,0.3718,0.3718,0,0.3403,0.3427,0.3459,0.3473,0.3488,0.3521,0.353,0.3549,0.3587,0.3597,0.3607,0.3652,0.3676,0.3696,0.3693,0.3705,0.3708,0.3714,0.3701,0.3699,0.3698,0.3693,0.3691,0.3716,0.3716,0.3716,0.3717,0,0.3398,0.3415,0.3419,0.3453,0.3468,0.348,0.3513,0.3526,0.3545,0.3568,0.3587,0.3617,0.3644,0.3651,0.3671,0.3673,0.3678,0.3694,0.3711,0.3692,0.3688,0.3687,0.3713,0.3714,0.3714,0.3715,0,0,0.3357,0.3407,0.3408,0.3423,0.3461,0.3474,0.3488,0.3514,0.3523,0.3548,0.356,0.3589,0.3604,0.3621,0.3644,0.3649,0.3636,0.3664,0.3666,0.3657,0.364,0.3627,0.3625,0.365,0.365,0.365,0.3637,0,0.3343,0.3368,0.3396,0.3411,0.3426,0.3457,0.3469,0.3493,0.3515,0.3531,0.3556,0.3575,0.3593,0.3604,0.3611,0.3636,0.3633,0.3638,0.3662,0.3662,0.3652,0.3623,0.361,0.3596,0.3636,0.3636,0.3636,0,0.3331,0.3352,0.3368,0.3403,0.3411,0.342,0.3446,0.3462,0.349,0.3505,0.3524,0.3547,0.3563,0.3578,0.36,0.3602,0.3614,0.3628,0.3628,0.3631,0.3647,0.3624,0.3592,0.3589,0.3634,0.3634,0.3634,0,0.3298,0.3331,0.3344,0.3357,0.3398,0.3404,0.3421,0.345,0.3464,0.3486,0.3496,0.352,0.3534,0.3553,0.3582,0.3591,0.3601,0.3619,0.3613,0.3612,0.3614,0.3613,0.3582,0.3622,0.3622,0.3622,0.3622,0,0.3279,0.3287,0.333,0.3338,0.3348,0.3381,0.339,0.341,0.3435,0.3448,0.3478,0.3489,0.3528,0.3545,0.3568,0.3582,0.3588,0.3601,0.3607,0.3598,0.3596,0.3605,0.3606,0.3622,0.3622,0.3622,0.3622,0,0.3243,0.3272,0.3289,0.3326,0.3335,0.3341,0.3373,0.3382,0.3405,0.3421,0.3427,0.3463,0.3483,0.3515,0.3545,0.3561,0.3571,0.3581,0.3561,0.3564,0.3557,0.3557,0.353,0.3528,0.357,0.357,0.3569,0,0.3229,0.3236,0.3273,0.3283,0.3299,0.3316,0.3329,0.3362,0.3375,0.3406,0.3412,0.3434,0.3454,0.3486,0.3515,0.3538,0.3549,0.3538,0.3552,0.3542,0.3547,0.3546,0.3546,0.3534,0.3533,0.3533,0.3533,0,0.32,0.3214,0.3232,0.3254,0.3269,0.3289,0.331,0.3317,0.3354,0.3367,0.3388,0.3403,0.3433,0.3455,0.3482,0.3501,0.3523,0.3528,0.3527,0.3518,0.3505,0.3511,0.355,0.3528,0.3528,0.3529,0.3529,0.3529,0.3175,0.3181,0.3208,0.3227,0.3246,0.3265,0.3275,0.3298,0.3316,0.3342,0.336,0.338,0.3407,0.3445,0.3463,0.3479,0.3488,0.3488,0.3488,0.3487,0.3483,0.3503,0.3484,0.3484,0.3484,0.3484,0.3485,0,0.3146,0.3165,0.3182,0.3209,0.3224,0.3242,0.3267,0.3278,0.3294,0.3317,0.3335,0.3359,0.338,0.341,0.3434,0.344,0.3451,0.3445,0.3445,0.3448,0.3474,0.3471,0.3436,0.3436,0.3436,0.3436,0.3436,0.3436,0.3133,0.3146,0.3162,0.3184,0.3203,0.3221,0.3233,0.3251,0.3269,0.3293,0.3311,0.333,0.3356,0.3381,0.3401,0.341,0.3417,0.3408,0.3419,0.3443,0.3447,0.3451,0.3449,0.3409,0.3409,0.3392,0.3392,0.3392]},{"header":{"parameterUnit":"m.s-1","parameterCategory":1,"la1":30.2991,"la2":30.254,"lo1":-89.0895,"lo2":-89.0444,"dy":0.0017,"dx":0.0017,"nx":28,"ny":28,"refTime":"2023-09-09T21:00:00:Z","depth":0,"parameterNumber":3,"parameterNumberName":"V-component_of_WINDS"},"data":[0,0,0,0,0,0,0,0,0,0,0,0,0,0,0,0,0,0,0,0,0,0,0,0,0,0,0,0,0,0,0,0,0,0,0,0,0,0,0,0,0,0,0,0,0,0,0,0,0,0,0,0,0,0,0,0,0,0,-0.3861,-0.386,0,-0.3816,-0.3816,-0.3815,-0.3781,-0.378,-0.378,-0.378,-0.3732,-0.3731,-0.373,0,0,0,0,0,0,0,0,0,0,0,0,0,-0.3917,-0.3916,-0.3861,-0.386,-0.386,-0.3816,-0.3816,-0.3815,-0.3781,-0.378,-0.378,-0.3779,-0.3733,-0.3731,-0.373,0,0,0,0,0,0,0,0,0,0,0,0,0,-0.3885,-0.3916,-0.3861,-0.3837,-0.3835,-0.3816,-0.3816,-0.3815,-0.3781,-0.378,-0.378,-0.3779,-0.3733,-0.3732,-0.373,-0.3731,0,0,-0.3726,-0.3725,0,0,0,0,0,0,0,0,-0.3886,-0.3883,-0.3841,-0.3839,-0.3836,-0.3803,-0.3818,-0.3787,-0.3781,-0.3801,-0.378,-0.3779,-0.3756,-0.3753,-0.3745,-0.3729,-0.3727,-0.3726,-0.3725,-0.3724,-0.3724,0,0,0,0,0,0,0,-0.3889,-0.3884,-0.3843,-0.3841,-0.3838,-0.3829,-0.3824,-0.3812,-0.3782,-0.3799,-0.3797,-0.3792,-0.3755,-0.3747,-0.3744,-0.3726,-0.3726,-0.3724,-0.3723,-0.3723,-0.3711,-0.3712,0,0,0,0,0,0,-0.3895,-0.3886,-0.3844,-0.3842,-0.3861,-0.3829,-0.3823,-0.3814,-0.3782,-0.3777,-0.3793,-0.3791,-0.375,-0.3746,-0.3742,-0.3744,-0.3724,-0.3723,-0.3722,-0.3711,-0.3712,-0.3712,0,0,0,0,0,0,-0.3896,-0.3891,-0.3846,-0.3863,-0.3857,-0.3828,-0.3819,-0.3814,-0.3806,-0.3777,-0.3771,-0.379,-0.3749,-0.3744,-0.3735,-0.3741,-0.3722,-0.3721,-0.371,-0.3711,-0.3712,-0.3745,0,0,0,0,0,0,-0.3898,-0.3892,-0.3891,-0.3864,-0.3856,-0.3839,-0.3819,-0.3813,-0.3804,-0.3801,-0.3773,-0.3768,-0.3748,-0.3737,-0.3734,-0.3739,-0.372,-0.3709,-0.3711,-0.3712,-0.3743,-0.3747,-0.375,0,0,0,0,0,-0.39,-0.3901,-0.3892,-0.3887,-0.3855,-0.384,-0.3835,-0.3813,-0.3804,-0.3804,-0.3786,-0.3769,-0.3741,-0.3737,-0.3732,-0.3737,-0.3709,-0.371,-0.3711,-0.3741,-0.3746,-0.375,0,0,0,0,0,0,-0.3929,-0.3897,-0.3886,-0.3878,-0.3862,-0.3834,-0.3833,-0.3818,-0.3804,-0.3802,-0.3774,-0.3768,-0.3763,-0.3749,-0.3744,-0.3738,-0.3723,-0.3724,-0.3747,-0.3751,-0.3755,-0.3758,-0.3718,0,0,0,0,0,-0.3935,-0.3925,-0.3898,-0.3893,-0.3886,-0.3861,-0.3854,-0.3838,-0.382,-0.3813,-0.3794,-0.3777,-0.3765,-0.3757,-0.3744,-0.3741,-0.3736,-0.3742,-0.3746,-0.3749,-0.375,-0.375,-0.3753,-0.3716,-0.3716,-0.3716,0,0,-0.3946,-0.3927,-0.3922,-0.3899,-0.3885,-0.3876,-0.3855,-0.3846,-0.384,-0.3811,-0.3802,-0.3788,-0.3767,-0.3762,-0.3759,-0.375,-0.3759,-0.375,-0.3753,-0.3752,-0.3752,-0.3755,-0.3758,-0.3717,-0.3717,-0.3717,0,0,-0.3962,-0.3947,-0.3943,-0.393,-0.391,-0.3894,-0.3893,-0.3868,-0.3858,-0.3848,-0.3828,-0.382,-0.3799,-0.3786,-0.3777,-0.3793,-0.3777,-0.3789,-0.3807,-0.3808,-0.3811,-0.3813,-0.3821,-0.3824,-0.379,-0.379,-0.379,0,-0.3978,-0.3965,-0.3943,-0.3936,-0.3927,-0.3903,-0.39,-0.3888,-0.3865,-0.3859,-0.3851,-0.3826,-0.381,-0.3803,-0.3808,-0.38,-0.38,-0.3792,-0.3812,-0.3814,-0.3816,-0.3824,-0.3827,-0.3792,-0.3792,-0.3791,-0.3791,0,-0.3987,-0.3978,-0.3978,-0.3958,-0.3949,-0.3944,-0.3922,-0.3916,-0.3903,-0.3888,-0.3881,-0.3861,-0.3845,-0.3842,-0.3828,-0.3834,-0.383,-0.3817,-0.3802,-0.3822,-0.3829,-0.3831,-0.3794,-0.3794,-0.3793,-0.3793,0,0,-0.4018,-0.3989,-0.3989,-0.3981,-0.3958,-0.3951,-0.3947,-0.3933,-0.3929,-0.3914,-0.3911,-0.3895,-0.3884,-0.3874,-0.3858,-0.3859,-0.3876,-0.3846,-0.3845,-0.3854,-0.3885,-0.3896,-0.39,-0.3866,-0.3867,-0.3867,-0.3888,0,-0.4032,-0.4022,-0.4004,-0.4001,-0.3994,-0.3973,-0.3969,-0.3956,-0.3943,-0.3935,-0.3921,-0.3911,-0.3896,-0.389,-0.389,-0.3874,-0.3883,-0.3872,-0.3864,-0.3864,-0.3871,-0.3903,-0.3914,-0.3934,-0.389,-0.389,-0.3891,0,-0.4045,-0.4035,-0.4032,-0.4013,-0.401,-0.4007,-0.3994,-0.3987,-0.3973,-0.3963,-0.3954,-0.3938,-0.3933,-0.3919,-0.3914,-0.3907,-0.3903,-0.3895,-0.3895,-0.3894,-0.3879,-0.3904,-0.394,-0.3944,-0.3894,-0.3894,-0.3894,0,-0.4071,-0.4055,-0.4052,-0.4046,-0.4024,-0.4023,-0.4014,-0.3998,-0.3993,-0.3982,-0.3978,-0.3967,-0.396,-0.3952,-0.3934,-0.3925,-0.3932,-0.3915,-0.3925,-0.3926,-0.3927,-0.3928,-0.3964,-0.3923,-0.3922,-0.3922,-0.3922,0,-0.4089,-0.4088,-0.4064,-0.4062,-0.4062,-0.4042,-0.4042,-0.4031,-0.4018,-0.4015,-0.3995,-0.3992,-0.3968,-0.3963,-0.3949,-0.3948,-0.3945,-0.3938,-0.3935,-0.3941,-0.3942,-0.3938,-0.3937,-0.3923,-0.3923,-0.3923,-0.3923,0,-0.4116,-0.41,-0.4096,-0.4077,-0.4072,-0.4073,-0.4057,-0.4055,-0.4043,-0.4039,-0.4037,-0.4017,-0.401,-0.3992,-0.3979,-0.397,-0.3974,-0.3966,-0.3979,-0.3977,-0.3989,-0.3989,-0.4025,-0.403,-0.3984,-0.3984,-0.3985,0,-0.4129,-0.4128,-0.4111,-0.4108,-0.41,-0.4095,-0.409,-0.4071,-0.4067,-0.4053,-0.4053,-0.4046,-0.4038,-0.4029,-0.4013,-0.4005,-0.3998,-0.4011,-0.3996,-0.4004,-0.4001,-0.4002,-0.4003,-0.4015,-0.4015,-0.4016,-0.4016,0,-0.4153,-0.4147,-0.414,-0.4133,-0.4128,-0.4121,-0.4112,-0.4111,-0.409,-0.4086,-0.4081,-0.4075,-0.4065,-0.4058,-0.4048,-0.4039,-0.4025,-0.4021,-0.4024,-0.403,-0.4039,-0.4037,-0.399,-0.402,-0.402,-0.402,-0.4019,-0.4019,-0.4175,-0.4175,-0.4164,-0.4159,-0.4151,-0.4145,-0.4144,-0.4133,-0.4128,-0.4119,-0.4108,-0.4105,-0.4093,-0.4079,-0.4071,-0.4068,-0.406,-0.4063,-0.4064,-0.4065,-0.4069,-0.4039,-0.4066,-0.4066,-0.4066,-0.4066,-0.4066,0,-0.42,-0.4193,-0.4189,-0.4179,-0.4176,-0.4165,-0.4156,-0.4154,-0.4152,-0.4143,-0.4138,-0.4133,-0.4128,-0.4113,-0.4107,-0.4108,-0.4101,-0.4107,-0.4107,-0.4106,-0.4075,-0.4075,-0.4112,-0.4112,-0.4112,-0.4112,-0.4112,-0.4112,-0.4213,-0.4214,-0.4207,-0.4205,-0.4197,-0.4195,-0.4191,-0.4186,-0.418,-0.4176,-0.4172,-0.4164,-0.4154,-0.4147,-0.4142,-0.4138,-0.4138,-0.4146,-0.414,-0.4112,-0.4107,-0.4103,-0.4103,-0.4145,-0.4145,-0.4171,-0.4171,-0.4171]}]]